TimeEDT,TemperatureF,Dew PointF,Humidity,Sea Level PressureIn,VisibilityMPH,Wind Direction,Wind SpeedMPH,Gust SpeedMPH,PrecipitationIn,Events,Conditions,WindDirDegrees,DateUTC
12:54 AM,63.0,62.1,97,30.09,2.0,South,4.6,-,N/A,,Clear,190,2013-09-19 04:54:00
1:01 AM,62.6,62.6,100,30.10,2.0,South,4.6,-,N/A,,Partly Cloudy,180,2013-09-19 05:01:00
1:18 AM,62.6,62.6,100,30.10,1.8,SSW,5.8,-,N/A,,Mostly Cloudy,200,2013-09-19 05:18:00
1:54 AM,63.0,62.1,97,30.09,1.2,South,5.8,-,N/A,,Overcast,190,2013-09-19 05:54:00
2:17 AM,62.6,62.6,100,30.10,0.5,South,4.6,-,N/A,Fog,Fog,180,2013-09-19 06:17:00
2:46 AM,62.6,62.6,100,30.10,0.2,SSW,4.6,-,N/A,Fog,Fog,200,2013-09-19 06:46:00
2:54 AM,63.0,63.0,100,30.08,0.2,South,5.8,-,N/A,Fog,Fog,190,2013-09-19 06:54:00
3:08 AM,62.6,62.6,100,30.09,0.5,South,6.9,-,N/A,Fog,Fog,190,2013-09-19 07:08:00
3:54 AM,64.0,63.0,96,30.07,0.5,South,5.8,-,N/A,Fog,Fog,180,2013-09-19 07:54:00
4:43 AM,64.4,62.6,94,30.09,1.2,South,5.8,-,N/A,,Overcast,180,2013-09-19 08:43:00
4:54 AM,64.0,63.0,96,30.07,0.8,South,5.8,-,N/A,,Overcast,190,2013-09-19 08:54:00
5:05 AM,64.4,62.6,94,30.10,1.0,SSE,4.6,-,N/A,,Overcast,160,2013-09-19 09:05:00
5:54 AM,64.0,63.0,96,30.07,1.8,South,5.8,-,N/A,,Overcast,170,2013-09-19 09:54:00
6:26 AM,64.4,62.6,94,30.09,2.0,South,4.6,-,N/A,,Overcast,170,2013-09-19 10:26:00
6:54 AM,64.0,63.0,96,30.08,2.0,South,4.6,-,N/A,,Overcast,170,2013-09-19 10:54:00
7:32 AM,64.4,62.6,94,30.10,1.5,South,5.8,-,N/A,,Overcast,170,2013-09-19 11:32:00
7:44 AM,64.4,64.4,100,30.10,1.8,South,5.8,-,N/A,Thunderstorm,Overcast,180,2013-09-19 11:44:00
7:54 AM,64.0,64.0,100,30.10,1.8,South,5.8,-,N/A,,Overcast,180,2013-09-19 11:54:00
8:14 AM,64.4,64.4,100,30.10,1.8,South,4.6,-,0.02,Rain,Light Rain,180,2013-09-19 12:14:00
8:28 AM,64.4,64.4,100,30.10,2.0,South,5.8,-,0.02,Rain,Light Rain,190,2013-09-19 12:28:00
8:36 AM,64.4,64.4,100,30.10,1.8,South,6.9,-,0.03,Rain,Light Rain,180,2013-09-19 12:36:00
8:54 AM,64.9,64.0,97,30.10,2.0,South,5.8,-,0.05,Rain,Light Rain,170,2013-09-19 12:54:00
9:02 AM,64.4,64.4,100,30.10,2.5,South,6.9,-,0.00,Rain,Light Rain,170,2013-09-19 13:02:00
9:12 AM,64.4,64.4,100,30.10,2.5,Variable,4.6,-,0.00,,Overcast,0,2013-09-19 13:12:00
9:32 AM,66.2,64.4,94,30.10,2.5,SSW,3.5,-,0.00,,Overcast,210,2013-09-19 13:32:00
9:40 AM,66.2,64.4,94,30.10,1.8,SW,6.9,-,0.01,Rain,Light Rain,230,2013-09-19 13:40:00
9:43 AM,66.2,64.4,94,30.10,2.0,SSW,5.8,-,0.02,Rain,Light Rain,210,2013-09-19 13:43:00
9:54 AM,66.0,64.9,96,30.10,3.0,SSW,5.8,-,0.03,Rain,Light Rain,200,2013-09-19 13:54:00
10:54 AM,68.0,66.0,93,30.09,3.0,SW,8.1,-,0.00,,Overcast,230,2013-09-19 14:54:00
11:54 AM,69.1,66.0,90,30.09,5.0,SW,6.9,-,0.00,Rain,Light Rain,230,2013-09-19 15:54:00
12:42 PM,71.6,64.4,78,30.10,10.0,SW,6.9,-,0.00,,Mostly Cloudy,220,2013-09-19 16:42:00
12:54 PM,70.0,66.0,87,30.09,9.0,SW,5.8,-,0.00,Rain,Light Rain,220,2013-09-19 16:54:00
1:54 PM,72.0,66.0,81,30.06,10.0,WSW,8.1,-,0.00,Rain,Light Rain,250,2013-09-19 17:54:00
2:06 PM,73.4,66.2,78,30.08,10.0,West,8.1,-,N/A,,Overcast,270,2013-09-19 18:06:00
2:54 PM,77.0,66.0,69,30.04,10.0,SW,11.5,-,N/A,,Mostly Cloudy,230,2013-09-19 18:54:00
3:49 PM,77.0,64.4,65,30.05,10.0,WSW,13.8,-,N/A,,Mostly Cloudy,240,2013-09-19 19:49:00
3:54 PM,78.1,64.9,64,30.03,10.0,West,11.5,-,N/A,,Mostly Cloudy,260,2013-09-19 19:54:00
4:54 PM,78.1,64.9,64,30.02,10.0,West,8.1,-,N/A,,Overcast,260,2013-09-19 20:54:00
5:54 PM,77.0,64.9,66,30.03,10.0,WSW,5.8,-,N/A,,Scattered Clouds,250,2013-09-19 21:54:00
6:54 PM,72.0,68.0,87,30.02,10.0,Calm,Calm,-,0.02,,Overcast,0,2013-09-19 22:54:00
7:54 PM,71.1,69.1,93,30.01,10.0,Calm,Calm,-,0.01,,Mostly Cloudy,0,2013-09-19 23:54:00
8:54 PM,68.0,64.9,90,29.99,10.0,South,6.9,-,N/A,,Clear,190,2013-09-20 00:54:00
9:54 PM,68.0,64.9,90,30.01,10.0,Calm,Calm,-,N/A,,Clear,0,2013-09-20 01:54:00
10:54 PM,66.9,64.0,90,30.01,8.0,SSW,3.5,-,N/A,,Clear,210,2013-09-20 02:54:00
11:54 PM,66.9,64.9,93,30.02,7.0,Calm,Calm,-,N/A,,Clear,0,2013-09-20 03:54:00